| time (UTC) | temp C | wind direction | speed KPH | gust KPH | rain 1hr cm | rain 24hr cm | rain mn cm | humidity % | barometer mb |
| 20260506103043 | 11 | 202 | 0.0 | 3.2 | 0.00 | 0.00 | 0.00 | 95 | 1016.5 |
| 20260506101541 | 11 | 202 | 0.0 | 0.0 | 0.00 | 0.00 | 0.00 | 94 | 1016.3 |
| 20260506100038 | 11 | 202 | 0.0 | 0.0 | 0.00 | 0.00 | 0.00 | 94 | 1016.3 |
| 20260506094537 | 11 | 202 | 0.0 | 0.0 | 0.00 | 0.00 | 0.00 | 94 | 1016.2 |
| 20260506093040 | 11 | 202 | 0.0 | 0.0 | 0.00 | 0.00 | 0.00 | 94 | 1016.1 |
| 20260506091535 | 11 | 202 | 0.0 | 0.0 | 0.00 | 0.00 | 0.00 | 94 | 1016.0 |
| 20260506090033 | 11 | 202 | 0.0 | 0.0 | 0.00 | 0.00 | 0.00 | 94 | 1015.8 |
| 20260506084536 | 11 | 202 | 0.0 | 1.6 | 0.00 | 0.00 | 0.00 | 94 | 1015.8 |
| 20260506083030 | 11 | 202 | 0.0 | 0.0 | 0.00 | 0.00 | 0.00 | 94 | 1015.8 |
| 20260506081529 | 11 | 202 | 0.0 | 1.6 | 0.00 | 0.00 | 0.00 | 93 | 1015.7 |
| 20260506073024 | 11 | 202 | 0.0 | 0.0 | 0.00 | 0.00 | 0.00 | 93 | 1015.5 |
| 20260506071521 | 11 | 202 | 0.0 | 0.0 | 0.00 | 0.00 | 0.00 | 93 | 1015.3 |
| 20260506061523 | 11 | 202 | 0.0 | 0.0 | 0.00 | 0.00 | 0.00 | 93 | 1015.0 |
| 20260506044517 | 12 | 202 | 0.0 | 0.0 | 0.00 | 0.00 | 0.00 | 91 | 1014.8 |
| 20260506043011 | 12 | 202 | 0.0 | 0.0 | 0.00 | 0.00 | 0.00 | 91 | 1014.7 |
| 20260506041508 | 12 | 202 | 0.0 | 0.0 | 0.00 | 0.00 | 0.00 | 90 | 1014.5 |
| 20260506040009 | 12 | 202 | 0.0 | 0.0 | 0.00 | 0.00 | 0.00 | 90 | 1014.3 |
| 20260506034506 | 12 | 202 | 0.0 | 0.0 | 0.00 | 0.00 | 0.00 | 90 | 1014.1 |
| 20260506033005 | 12 | 202 | 0.0 | 1.6 | 0.00 | 0.00 | 0.00 | 89 | 1013.8 |
| 20260506031504 | 12 | 202 | 0.0 | 1.6 | 0.00 | 0.00 | 0.00 | 89 | 1013.7 |
| 20260506030002 | 12 | 202 | 0.0 | 3.2 | 0.00 | 0.00 | 0.00 | 88 | 1013.5 |
| 20260506024615 | 12 | 202 | 0.0 | 1.6 | 0.00 | 0.00 | 0.00 | 88 | 1013.3 |
| 20260506023105 | 12 | 202 | 0.0 | 3.2 | 0.00 | 0.00 | 0.00 | 87 | 1013.4 |
| 20260506021601 | 13 | 209 | 0.0 | 3.2 | 0.00 | 0.00 | 0.00 | 86 | 1013.3 |
| 20260506020057 | 13 | 209 | 0.0 | 1.6 | 0.00 | 0.00 | 0.00 | 86 | 1013.2 |
| 20260506014557 | 13 | 209 | 0.0 | 1.6 | 0.00 | 0.00 | 0.00 | 85 | 1013.2 |
| 20260506013102 | 13 | 209 | 0.0 | 3.2 | 0.00 | 0.00 | 0.00 | 85 | 1013.0 |
| 20260506011621 | 13 | 209 | 1.6 | 4.8 | 0.00 | 0.00 | 0.00 | 83 | 1012.9 |
| 20260506010106 | 14 | 216 | 0.0 | 6.4 | 0.00 | 0.00 | 0.00 | 84 | 1012.8 |
| 20260506004555 | 14 | 217 | 1.6 | 6.4 | 0.00 | 0.00 | 0.00 | 83 | 1012.9 |
| 20260506003057 | 14 | 190 | 0.0 | 3.2 | 0.00 | 0.00 | 0.00 | 84 | 1012.8 |
| 20260506001556 | 14 | 207 | 4.8 | 8.0 | 0.00 | 0.00 | 0.00 | 82 | 1012.8 |
| 20260506000058 | 14 | 152 | 0.0 | 6.4 | 0.00 | 0.00 | 0.00 | 82 | 1013.0 |
| 20260505234552 | 14 | 178 | 3.2 | 8.0 | 0.00 | 0.00 | 0.00 | 82 | 1012.9 |
| 20260505233052 | 15 | 180 | 1.6 | 8.0 | 0.00 | 0.00 | 0.00 | 82 | 1013.0 |
| 20260505231554 | 15 | 120 | 1.6 | 8.0 | 0.00 | 0.00 | 0.00 | 81 | 1013.2 |
| 20260505230052 | 16 | 150 | 1.6 | 9.7 | 0.00 | 0.00 | 0.00 | 80 | 1013.2 |
| 20260505224549 | 16 | 147 | 0.0 | 6.4 | 0.00 | 0.00 | 0.00 | 80 | 1013.0 |
| 20260505223048 | 16 | 201 | 3.2 | 11.3 | 0.00 | 0.00 | 0.00 | 78 | 1013.0 |
| 20260505221600 | 17 | 182 | 1.6 | 6.4 | 0.00 | 0.00 | 0.00 | 78 | 1013.1 |
| 20260505220057 | 17 | 222 | 3.2 | 8.0 | 0.00 | 0.00 | 0.00 | 76 | 1013.2 |
| 20260505214552 | 16 | 159 | 4.8 | 16.1 | 0.00 | 0.00 | 0.00 | 79 | 1013.1 |
| 20260505213047 | 17 | 180 | 8.0 | 16.1 | 0.00 | 0.00 | 0.00 | 77 | 1012.9 |
| 20260505211543 | 17 | 202 | 8.0 | 16.1 | 0.00 | 0.00 | 0.00 | 77 | 1013.0 |
| 20260505210047 | 16 | 188 | 8.0 | 12.9 | 0.00 | 0.00 | 0.00 | 78 | 1012.9 |
| 20260505204550 | 16 | 125 | 4.8 | 14.5 | 0.00 | 0.00 | 0.00 | 78 | 1013.0 |
| 20260505203038 | 16 | 196 | 4.8 | 12.9 | 0.00 | 0.00 | 0.00 | 78 | 1013.0 |
| 20260505201539 | 16 | 194 | 4.8 | 12.9 | 0.00 | 0.00 | 0.00 | 79 | 1013.0 |
| 20260505200036 | 16 | 244 | 4.8 | 12.9 | 0.00 | 0.00 | 0.00 | 79 | 1013.1 |
| 20260505194534 | 15 | 185 | 6.4 | 12.9 | 0.00 | 0.00 | 0.00 | 79 | 1013.0 |
| 20260505193040 | 16 | 185 | 4.8 | 12.9 | 0.00 | 0.00 | 0.00 | 80 | 1013.1 |
| 20260505191532 | 15 | 209 | 4.8 | 11.3 | 0.00 | 0.00 | 0.00 | 80 | 1013.1 |
| 20260505190028 | 15 | 187 | 6.4 | 12.9 | 0.00 | 0.00 | 0.00 | 81 | 1013.1 |
| 20260505184528 | 14 | 184 | 1.6 | 11.3 | 0.00 | 0.00 | 0.00 | 81 | 1012.9 |
| 20260505183035 | 15 | 196 | 3.2 | 9.7 | 0.00 | 0.00 | 0.00 | 81 | 1013.0 |
| 20260505181529 | 15 | 204 | 1.6 | 11.3 | 0.00 | 0.00 | 0.00 | 79 | 1012.9 |
| 20260505180026 | 15 | 213 | 1.6 | 6.4 | 0.00 | 0.00 | 0.00 | 82 | 1012.9 |
| 20260505174522 | 14 | 184 | 4.8 | 8.0 | 0.00 | 0.03 | 0.00 | 81 | 1012.9 |
| 20260505173021 | 14 | 180 | 1.6 | 6.4 | 0.00 | 0.03 | 0.00 | 82 | 1012.8 |
| 20260505171519 | 14 | 222 | 0.0 | 3.2 | 0.00 | 0.03 | 0.00 | 83 | 1012.7 |
| 20260505170018 | 13 | 217 | 1.6 | 4.8 | 0.00 | 0.03 | 0.00 | 83 | 1012.6 |
| 20260505164517 | 13 | 228 | 1.6 | 9.7 | 0.00 | 0.03 | 0.00 | 84 | 1012.7 |
| 20260505163016 | 13 | 222 | 1.6 | 6.4 | 0.00 | 0.03 | 0.00 | 82 | 1012.6 |
| 20260505161514 | 13 | 213 | 0.0 | 1.6 | 0.00 | 0.03 | 0.00 | 85 | 1012.6 |
| 20260505153007 | 13 | 200 | 0.0 | 4.8 | 0.00 | 0.03 | 0.00 | 90 | 1012.6 |
| 20260505151502 | 12 | 199 | 0.0 | 0.0 | 0.00 | 0.03 | 0.00 | 94 | 1012.4 |
| 20260505124550 | 11 | 199 | 0.0 | 0.0 | 0.00 | 0.03 | 0.00 | 96 | 1012.1 |
| 20260505123049 | 11 | 199 | 0.0 | 0.0 | 0.00 | 0.03 | 0.00 | 96 | 1012.1 |
| 20260505121542 | 11 | 199 | 0.0 | 0.0 | 0.00 | 0.03 | 0.00 | 96 | 1011.9 |
| 20260505120049 | 11 | 199 | 0.0 | 0.0 | 0.00 | 0.03 | 0.00 | 96 | 1011.9 |
| 20260505114542 | 11 | 199 | 0.0 | 0.0 | 0.00 | 0.03 | 0.00 | 96 | 1011.8 |
| 20260505113047 | 11 | 199 | 0.0 | 0.0 | 0.00 | 0.03 | 0.00 | 96 | 1011.7 |
| 20260505111539 | 11 | 199 | 0.0 | 0.0 | 0.00 | 0.03 | 0.00 | 96 | 1011.7 |